GFSNE_prec_precacc24_060.txt.gz
Total_Precipitation_Accumulation
0.07 0.06 0.04 0.02 0.01 0.01 0.01 0.01 0.01 0.01 0.00 0.00 0.00 0.00 0.00 0.00 0.00 0.00 0.00 0.00 0.00 0.00 0.00 0.00 0.00 0.00 0.00 0.00 0.01 0.01 0.01 0.00 0.01 0.00 0.01 0.01 0.01 0.03
0.05 0.06 0.06 0.04 0.03 0.02 0.02 0.01 0.01 0.02 0.02 0.00 0.00 0.00 0.00 0.00 0.00 0.00 0.00 0.00 0.00 0.00 0.00 0.00 0.00 0.00 0.00 0.00 0.01 0.02 0.02 0.01 0.01 0.01 0.00 0.01 0.02 0.04
0.06 0.10 0.11 0.09 0.06 0.04 0.02 0.01 0.01 0.01 0.01 0.00 0.00 0.00 0.00 0.00 0.00 0.00 0.00 0.00 0.00 0.00 0.00 0.00 0.00 0.00 0.00 0.00 0.00 0.01 0.02 0.01 0.01 0.02 0.01 0.02 0.03 0.04
0.25 0.20 0.11 0.05 0.02 0.01 0.00 0.00 0.00 0.00 0.00 0.00 0.00 0.00 0.00 0.00 0.00 0.00 0.00 0.00 0.00 0.00 0.00 0.00 0.00 0.00 0.00 0.00 0.00 0.01 0.01 0.01 0.01 0.02 0.03 0.02 0.01 0.02
0.09 0.04 0.03 0.02 0.02 0.01 0.01 0.00 0.00 0.00 0.00 0.00 0.00 0.00 0.00 0.00 0.00 0.00 0.00 0.00 0.00 0.00 0.00 0.00 0.00 0.00 0.01 0.01 0.00 0.00 0.00 0.00 0.01 0.01 0.02 0.01 0.01 0.01
0.01 0.01 0.02 0.01 0.01 0.00 0.00 0.00 0.00 0.00 0.00 0.01 0.00 0.00 0.00 0.00 0.00 0.00 0.00 0.00 0.00 0.00 0.00 0.00 0.00 0.01 0.00 0.00 0.00 0.00 0.01 0.03 0.05 0.07 0.07 0.03 0.01 0.01
0.01 0.01 0.02 0.03 0.02 0.01 0.00 0.00 0.00 0.00 0.00 0.00 0.00 0.00 0.00 0.00 0.00 0.00 0.01 0.01 0.00 0.00 0.00 0.00 0.00 0.00 0.00 0.01 0.03 0.04 0.06 0.08 0.08 0.09 0.09 0.04 0.02 0.02
0.02 0.02 0.03 0.04 0.01 0.00 0.00 0.00 0.00 0.00 0.00 0.00 0.00 0.00 0.00 0.00 0.01 0.02 0.02 0.03 0.03 0.01 0.01 0.02 0.02 0.02 0.01 0.01 0.01 0.01 0.01 0.01 0.02 0.03 0.04 0.04 0.03 0.02
0.03 0.02 0.01 0.00 0.00 0.00 0.00 0.00 0.00 0.00 0.00 0.00 0.01 0.00 0.01 0.01 0.04 0.03 0.02 0.03 0.05 0.01 0.02 0.03 0.00 0.01 0.01 0.02 0.03 0.04 0.05 0.04 0.03 0.03 0.02 0.01 0.00 0.00
0.01 0.01 0.00 0.00 0.00 0.00 0.00 0.00 0.00 0.00 0.00 0.01 0.01 0.00 0.01 0.01 0.03 0.03 0.03 0.04 0.03 0.02 0.03 0.06 0.02 0.02 0.02 0.02 0.02 0.02 0.03 0.04 0.03 0.01 0.01 0.00 0.00 0.00
0.00 0.00 0.00 0.00 0.00 0.00 0.00 0.00 0.00 0.01 0.02 0.02 0.02 0.02 0.01 0.01 0.01 0.02 0.04 0.05 0.05 0.01 0.01 0.07 0.04 0.03 0.01 0.00 0.00 0.00 0.00 0.00 0.00 0.00 0.00 0.00 0.01 0.01
0.00 0.00 0.01 0.00 0.00 0.00 0.00 0.00 0.02 0.01 0.03 0.05 0.06 0.04 0.02 0.02 0.02 0.03 0.06 0.15 0.14 0.10 0.02 0.06 0.02 0.03 0.06 0.00 0.00 0.00 0.00 0.00 0.00 0.00 0.00 0.01 0.02 0.02
0.00 0.00 0.00 0.00 0.00 0.00 0.00 0.01 0.02 0.02 0.06 0.07 0.06 0.06 0.04 0.02 0.01 0.01 0.01 0.05 0.14 0.12 0.02 0.12 0.09 0.05 0.11 0.04 0.00 0.00 0.01 0.01 0.01 0.00 0.00 0.01 0.02 0.03
0.01 0.01 0.01 0.00 0.01 0.01 0.02 0.03 0.02 0.04 0.08 0.08 0.04 0.03 0.03 0.03 0.01 0.01 0.01 0.01 0.02 0.05 0.05 0.16 0.25 0.12 0.14 0.11 0.06 0.01 0.00 0.00 0.01 0.01 0.02 0.02 0.05 0.04
0.01 0.01 0.00 0.00 0.01 0.03 0.03 0.02 0.03 0.11 0.12 0.13 0.10 0.06 0.04 0.05 0.08 0.11 0.12 0.09 0.07 0.05 0.07 0.11 0.13 0.12 0.12 0.08 0.04 0.01 0.01 0.00 0.01 0.04 0.04 0.14 0.20 0.23
0.01 0.02 0.02 0.02 0.02 0.03 0.05 0.07 0.10 0.11 0.13 0.14 0.11 0.08 0.09 0.10 0.08 0.05 0.09 0.09 0.13 0.04 0.01 0.05 0.09 0.12 0.08 0.04 0.05 0.03 0.01 0.02 0.02 0.04 0.07 0.18 0.33 0.47
0.06 0.08 0.06 0.05 0.05 0.05 0.05 0.06 0.09 0.12 0.13 0.09 0.11 0.12 0.13 0.11 0.09 0.07 0.09 0.08 0.10 0.03 0.01 0.00 0.03 0.05 0.03 0.03 0.04 0.02 0.02 0.03 0.03 0.01 0.07 0.14 0.44 0.47
0.14 0.09 0.05 0.06 0.06 0.06 0.09 0.09 0.10 0.12 0.13 0.16 0.19 0.16 0.13 0.10 0.07 0.06 0.07 0.07 0.05 0.01 0.01 0.02 0.06 0.10 0.06 0.02 0.02 0.02 0.02 0.02 0.00 0.00 0.05 0.13 0.29 0.44
0.11 0.09 0.10 0.10 0.10 0.10 0.11 0.13 0.15 0.16 0.16 0.16 0.14 0.10 0.11 0.12 0.12 0.11 0.10 0.10 0.08 0.03 0.02 0.02 0.09 0.13 0.10 0.04 0.02 0.01 0.01 0.01 0.01 0.01 0.02 0.07 0.25 0.33
0.07 0.07 0.07 0.06 0.06 0.06 0.07 0.08 0.10 0.12 0.16 0.16 0.16 0.14 0.15 0.15 0.15 0.13 0.11 0.13 0.08 0.05 0.04 0.04 0.09 0.11 0.13 0.07 0.04 0.01 0.01 0.02 0.02 0.02 0.01 0.01 0.21 0.17
0.06 0.06 0.06 0.07 0.08 0.09 0.11 0.13 0.15 0.17 0.18 0.20 0.17 0.16 0.15 0.17 0.16 0.15 0.16 0.15 0.15 0.12 0.08 0.02 0.02 0.08 0.14 0.13 0.10 0.07 0.11 0.04 0.03 0.03 0.01 0.00 0.09 0.07
0.10 0.10 0.10 0.10 0.12 0.13 0.13 0.13 0.12 0.13 0.16 0.18 0.19 0.18 0.16 0.17 0.18 0.16 0.15 0.15 0.11 0.09 0.06 0.02 0.03 0.08 0.09 0.08 0.06 0.08 0.13 0.12 0.02 0.02 0.01 0.01 0.01 0.02
0.08 0.09 0.09 0.08 0.08 0.07 0.07 0.08 0.10 0.11 0.14 0.16 0.16 0.16 0.19 0.18 0.14 0.14 0.14 0.12 0.10 0.08 0.07 0.08 0.08 0.07 0.04 0.05 0.06 0.07 0.05 0.05 0.07 0.07 0.03 0.01 0.01 0.01

GFSNE_prec_precacc24_063.txt.gz
Total_Precipitation_Accumulation
0.11 0.10 0.06 0.05 0.05 0.02 0.01 0.01 0.01 0.01 0.00 0.00 0.00 0.00 0.00 0.00 0.00 0.00 0.00 0.00 0.00 0.00 0.00 0.00 0.00 0.00 0.00 0.00 0.01 0.01 0.01 0.02 0.02 0.02 0.03 0.03 0.02 0.03
0.07 0.09 0.08 0.06 0.04 0.03 0.02 0.01 0.01 0.02 0.01 0.00 0.00 0.00 0.00 0.00 0.00 0.00 0.00 0.00 0.00 0.00 0.00 0.00 0.00 0.00 0.00 0.00 0.01 0.03 0.02 0.02 0.02 0.02 0.02 0.03 0.05 0.08
0.12 0.15 0.15 0.11 0.07 0.04 0.02 0.01 0.01 0.01 0.01 0.00 0.00 0.00 0.00 0.00 0.00 0.00 0.00 0.00 0.00 0.00 0.00 0.00 0.00 0.00 0.00 0.00 0.00 0.01 0.02 0.02 0.02 0.02 0.03 0.04 0.06 0.08
0.33 0.29 0.18 0.08 0.03 0.01 0.00 0.00 0.00 0.00 0.00 0.00 0.00 0.00 0.00 0.00 0.00 0.00 0.00 0.00 0.00 0.00 0.00 0.00 0.00 0.00 0.00 0.00 0.00 0.01 0.01 0.01 0.02 0.03 0.05 0.06 0.08 0.08
0.24 0.16 0.08 0.04 0.02 0.02 0.01 0.01 0.00 0.00 0.00 0.00 0.00 0.00 0.00 0.00 0.00 0.00 0.00 0.00 0.00 0.00 0.00 0.00 0.00 0.00 0.01 0.01 0.00 0.00 0.00 0.00 0.01 0.03 0.03 0.03 0.04 0.05
0.05 0.04 0.03 0.03 0.02 0.02 0.01 0.01 0.01 0.00 0.00 0.01 0.00 0.00 0.00 0.00 0.00 0.00 0.00 0.00 0.00 0.00 0.00 0.00 0.00 0.01 0.00 0.00 0.00 0.00 0.01 0.03 0.06 0.08 0.09 0.08 0.08 0.07
0.02 0.02 0.02 0.07 0.07 0.03 0.01 0.01 0.00 0.00 0.00 0.00 0.00 0.00 0.00 0.00 0.00 0.00 0.01 0.01 0.00 0.00 0.00 0.00 0.00 0.00 0.00 0.01 0.03 0.04 0.06 0.08 0.09 0.10 0.12 0.11 0.11 0.10
0.03 0.02 0.04 0.08 0.02 0.04 0.03 0.02 0.01 0.00 0.00 0.00 0.00 0.00 0.00 0.00 0.01 0.02 0.02 0.03 0.03 0.01 0.01 0.02 0.02 0.02 0.01 0.01 0.01 0.01 0.01 0.01 0.02 0.03 0.05 0.06 0.07 0.08
0.03 0.02 0.02 0.03 0.06 0.02 0.03 0.02 0.00 0.00 0.00 0.00 0.01 0.00 0.01 0.01 0.04 0.03 0.02 0.03 0.05 0.01 0.02 0.03 0.00 0.01 0.01 0.02 0.03 0.04 0.05 0.04 0.03 0.04 0.04 0.04 0.03 0.02
0.03 0.03 0.03 0.03 0.03 0.02 0.00 0.00 0.01 0.00 0.00 0.01 0.01 0.00 0.01 0.01 0.03 0.03 0.03 0.04 0.03 0.02 0.03 0.06 0.02 0.02 0.02 0.02 0.02 0.02 0.03 0.04 0.03 0.02 0.02 0.02 0.01 0.00
0.04 0.04 0.04 0.02 0.02 0.03 0.01 0.00 0.00 0.01 0.02 0.02 0.02 0.02 0.01 0.01 0.01 0.02 0.03 0.05 0.05 0.01 0.01 0.07 0.04 0.03 0.01 0.00 0.00 0.00 0.00 0.00 0.00 0.01 0.01 0.00 0.00 0.01
0.04 0.03 0.05 0.01 0.02 0.01 0.00 0.00 0.02 0.01 0.03 0.05 0.06 0.04 0.03 0.02 0.02 0.03 0.06 0.15 0.14 0.10 0.02 0.05 0.02 0.03 0.06 0.00 0.00 0.00 0.00 0.00 0.00 0.00 0.00 0.01 0.02 0.01
0.03 0.01 0.01 0.03 0.01 0.00 0.00 0.01 0.02 0.02 0.06 0.07 0.06 0.06 0.04 0.02 0.01 0.01 0.01 0.05 0.14 0.12 0.02 0.12 0.09 0.05 0.11 0.03 0.00 0.00 0.01 0.01 0.02 0.00 0.00 0.01 0.02 0.02
0.01 0.01 0.01 0.02 0.00 0.00 0.01 0.01 0.01 0.03 0.08 0.08 0.04 0.03 0.03 0.03 0.01 0.01 0.01 0.01 0.02 0.05 0.05 0.16 0.26 0.12 0.14 0.13 0.06 0.01 0.00 0.00 0.01 0.01 0.02 0.01 0.03 0.03
0.01 0.01 0.00 0.00 0.01 0.01 0.01 0.00 0.01 0.07 0.11 0.13 0.10 0.06 0.04 0.05 0.08 0.11 0.12 0.09 0.07 0.05 0.07 0.11 0.14 0.14 0.16 0.11 0.06 0.01 0.01 0.00 0.01 0.04 0.03 0.04 0.09 0.20
0.01 0.02 0.02 0.02 0.02 0.02 0.03 0.03 0.04 0.07 0.10 0.13 0.11 0.08 0.09 0.10 0.08 0.05 0.09 0.09 0.13 0.04 0.01 0.05 0.10 0.15 0.14 0.08 0.08 0.04 0.02 0.02 0.02 0.04 0.03 0.03 0.17 0.34
0.03 0.03 0.03 0.04 0.04 0.04 0.04 0.03 0.04 0.05 0.06 0.06 0.10 0.12 0.13 0.11 0.09 0.07 0.09 0.08 0.10 0.03 0.01 0.00 0.03 0.06 0.06 0.05 0.07 0.02 0.04 0.04 0.03 0.01 0.02 0.04 0.25 0.33
0.02 0.04 0.04 0.05 0.06 0.06 0.09 0.08 0.06 0.06 0.09 0.15 0.18 0.16 0.13 0.10 0.07 0.06 0.07 0.07 0.05 0.01 0.01 0.02 0.06 0.10 0.07 0.04 0.02 0.02 0.02 0.02 0.01 0.01 0.03 0.09 0.19 0.27
0.03 0.04 0.07 0.10 0.11 0.10 0.11 0.13 0.14 0.14 0.12 0.11 0.12 0.10 0.11 0.12 0.12 0.11 0.10 0.10 0.08 0.03 0.02 0.02 0.09 0.15 0.14 0.06 0.03 0.01 0.01 0.01 0.01 0.01 0.02 0.04 0.19 0.22
0.03 0.05 0.06 0.06 0.06 0.06 0.07 0.07 0.08 0.09 0.12 0.14 0.15 0.14 0.15 0.15 0.15 0.13 0.11 0.13 0.08 0.05 0.04 0.04 0.09 0.13 0.16 0.10 0.08 0.03 0.01 0.02 0.02 0.02 0.01 0.01 0.21 0.15
0.05 0.05 0.05 0.07 0.08 0.09 0.11 0.13 0.14 0.15 0.16 0.18 0.16 0.16 0.15 0.17 0.16 0.15 0.16 0.15 0.15 0.12 0.08 0.02 0.02 0.09 0.16 0.15 0.13 0.07 0.11 0.01 0.01 0.01 0.01 0.00 0.08 0.07
0.06 0.06 0.06 0.06 0.08 0.11 0.12 0.12 0.11 0.10 0.13 0.16 0.17 0.17 0.16 0.17 0.18 0.16 0.15 0.15 0.11 0.09 0.06 0.02 0.03 0.08 0.11 0.11 0.07 0.10 0.16 0.12 0.01 0.00 0.00 0.01 0.01 0.02
0.05 0.05 0.05 0.04 0.04 0.05 0.05 0.06 0.07 0.09 0.11 0.13 0.13 0.15 0.19 0.18 0.15 0.14 0.14 0.12 0.11 0.08 0.07 0.08 0.08 0.08 0.06 0.07 0.08 0.11 0.11 0.06 0.06 0.06 0.02 0.00 0.00 0.00

GFSNE_prec_precacc24_069.txt.gz
Total_Precipitation_Accumulation
0.15 0.14 0.11 0.09 0.08 0.06 0.04 0.03 0.03 0.02 0.01 0.00 0.00 0.00 0.00 0.00 0.00 0.00 0.00 0.00 0.00 0.00 0.00 0.00 0.00 0.00 0.00 0.00 0.01 0.01 0.01 0.02 0.02 0.02 0.02 0.02 0.02 0.02
0.10 0.12 0.12 0.10 0.08 0.05 0.04 0.04 0.04 0.06 0.10 0.03 0.00 0.00 0.00 0.00 0.00 0.00 0.00 0.00 0.00 0.00 0.00 0.00 0.00 0.00 0.00 0.00 0.01 0.03 0.02 0.02 0.02 0.02 0.02 0.03 0.05 0.08
0.16 0.18 0.19 0.17 0.18 0.19 0.25 0.33 0.39 0.39 0.33 0.14 0.06 0.04 0.00 0.00 0.00 0.00 0.00 0.00 0.00 0.00 0.00 0.00 0.00 0.00 0.00 0.00 0.00 0.01 0.02 0.02 0.02 0.02 0.02 0.03 0.05 0.08
0.35 0.38 0.31 0.28 0.31 0.33 0.33 0.30 0.24 0.20 0.23 0.18 0.08 0.03 0.01 0.00 0.00 0.00 0.00 0.00 0.00 0.00 0.00 0.00 0.00 0.00 0.00 0.00 0.00 0.01 0.01 0.01 0.02 0.03 0.04 0.05 0.07 0.09
0.31 0.27 0.25 0.26 0.26 0.22 0.20 0.17 0.14 0.12 0.09 0.08 0.06 0.04 0.03 0.00 0.00 0.00 0.00 0.00 0.00 0.00 0.00 0.00 0.00 0.00 0.01 0.01 0.00 0.00 0.00 0.00 0.01 0.02 0.03 0.03 0.03 0.05
0.12 0.12 0.12 0.13 0.13 0.13 0.13 0.12 0.10 0.09 0.10 0.07 0.10 0.06 0.02 0.02 0.01 0.00 0.00 0.00 0.00 0.00 0.00 0.00 0.00 0.01 0.00 0.00 0.00 0.00 0.01 0.03 0.06 0.08 0.09 0.08 0.07 0.07
0.03 0.04 0.05 0.11 0.12 0.09 0.08 0.10 0.11 0.14 0.13 0.04 0.03 0.01 0.01 0.01 0.00 0.00 0.01 0.01 0.00 0.00 0.00 0.00 0.00 0.00 0.00 0.01 0.03 0.04 0.06 0.08 0.09 0.10 0.11 0.11 0.10 0.09
0.06 0.05 0.07 0.15 0.10 0.13 0.13 0.14 0.14 0.13 0.07 0.02 0.02 0.02 0.01 0.02 0.03 0.03 0.02 0.03 0.03 0.01 0.01 0.02 0.02 0.02 0.01 0.01 0.01 0.01 0.01 0.01 0.02 0.03 0.04 0.05 0.06 0.07
0.08 0.08 0.08 0.10 0.16 0.09 0.15 0.15 0.10 0.09 0.07 0.03 0.04 0.07 0.08 0.05 0.06 0.04 0.02 0.03 0.05 0.01 0.02 0.03 0.00 0.01 0.01 0.02 0.03 0.04 0.05 0.04 0.03 0.04 0.04 0.04 0.03 0.02
0.07 0.07 0.06 0.07 0.11 0.10 0.06 0.07 0.05 0.07 0.07 0.06 0.08 0.12 0.12 0.06 0.04 0.03 0.03 0.04 0.03 0.02 0.03 0.06 0.02 0.02 0.02 0.02 0.02 0.02 0.03 0.04 0.03 0.02 0.02 0.02 0.02 0.02
0.11 0.13 0.15 0.12 0.32 0.27 0.17 0.25 0.31 0.34 0.36 0.33 0.30 0.25 0.15 0.05 0.02 0.03 0.03 0.05 0.05 0.01 0.01 0.07 0.04 0.03 0.01 0.00 0.00 0.00 0.00 0.00 0.00 0.01 0.01 0.01 0.01 0.01
0.11 0.19 0.35 0.25 0.38 0.28 0.22 0.21 0.24 0.23 0.20 0.17 0.13 0.09 0.05 0.03 0.03 0.04 0.07 0.15 0.14 0.10 0.02 0.05 0.02 0.03 0.06 0.00 0.00 0.00 0.00 0.00 0.00 0.00 0.00 0.01 0.02 0.01
0.17 0.20 0.23 0.27 0.18 0.17 0.15 0.14 0.17 0.17 0.13 0.09 0.05 0.06 0.04 0.03 0.01 0.01 0.01 0.05 0.13 0.12 0.02 0.12 0.08 0.05 0.11 0.03 0.00 0.00 0.00 0.01 0.01 0.01 0.01 0.01 0.02 0.02
0.18 0.20 0.26 0.30 0.21 0.20 0.18 0.14 0.11 0.08 0.06 0.04 0.03 0.02 0.02 0.02 0.01 0.01 0.01 0.01 0.02 0.05 0.05 0.16 0.26 0.11 0.13 0.12 0.06 0.01 0.00 0.01 0.02 0.02 0.04 0.03 0.00 0.00
0.13 0.21 0.27 0.26 0.21 0.16 0.13 0.10 0.07 0.04 0.03 0.03 0.04 0.03 0.02 0.03 0.06 0.09 0.11 0.09 0.07 0.05 0.07 0.11 0.14 0.14 0.16 0.11 0.06 0.02 0.01 0.01 0.02 0.04 0.06 0.06 0.03 0.08
0.25 0.28 0.27 0.23 0.19 0.16 0.11 0.06 0.03 0.02 0.03 0.04 0.04 0.02 0.01 0.02 0.03 0.03 0.08 0.08 0.12 0.04 0.01 0.05 0.10 0.15 0.14 0.08 0.09 0.06 0.04 0.04 0.03 0.05 0.05 0.06 0.10 0.15
0.22 0.18 0.15 0.10 0.06 0.04 0.02 0.01 0.01 0.01 0.01 0.02 0.03 0.04 0.07 0.07 0.06 0.06 0.08 0.07 0.09 0.02 0.01 0.00 0.03 0.06 0.06 0.05 0.08 0.03 0.04 0.05 0.04 0.04 0.06 0.07 0.17 0.13
0.08 0.06 0.05 0.04 0.03 0.02 0.01 0.00 0.01 0.02 0.06 0.11 0.12 0.10 0.07 0.05 0.05 0.05 0.06 0.06 0.05 0.01 0.01 0.01 0.06 0.10 0.07 0.03 0.02 0.02 0.04 0.06 0.05 0.05 0.08 0.11 0.14 0.16
0.07 0.07 0.07 0.06 0.04 0.03 0.03 0.03 0.04 0.09 0.10 0.08 0.06 0.04 0.06 0.06 0.06 0.07 0.08 0.09 0.07 0.03 0.02 0.02 0.09 0.15 0.13 0.05 0.01 0.03 0.09 0.10 0.09 0.08 0.08 0.08 0.11 0.14
0.04 0.05 0.05 0.04 0.03 0.02 0.02 0.02 0.02 0.03 0.10 0.11 0.11 0.10 0.11 0.11 0.10 0.10 0.10 0.11 0.08 0.05 0.04 0.04 0.09 0.13 0.16 0.09 0.08 0.02 0.03 0.06 0.12 0.15 0.13 0.11 0.15 0.13
0.05 0.05 0.04 0.04 0.03 0.03 0.03 0.03 0.02 0.04 0.07 0.11 0.12 0.12 0.11 0.13 0.11 0.12 0.15 0.15 0.14 0.12 0.08 0.02 0.02 0.09 0.16 0.15 0.12 0.03 0.03 0.03 0.05 0.10 0.12 0.19 0.16 0.05
0.06 0.06 0.06 0.04 0.04 0.03 0.03 0.03 0.02 0.01 0.03 0.06 0.10 0.13 0.11 0.13 0.14 0.13 0.14 0.14 0.11 0.10 0.07 0.02 0.03 0.08 0.11 0.11 0.06 0.05 0.11 0.15 0.07 0.04 0.04 0.10 0.14 0.05
0.05 0.04 0.04 0.03 0.02 0.02 0.02 0.01 0.01 0.01 0.01 0.03 0.05 0.07 0.12 0.12 0.10 0.09 0.12 0.12 0.11 0.08 0.08 0.08 0.08 0.08 0.06 0.07 0.09 0.09 0.11 0.11 0.12 0.11 0.06 0.01 0.01 0.00

GFSNE_prec_precacc24_072.txt.gz
Total_Precipitation_Accumulation
0.16 0.16 0.14 0.11 0.11 0.09 0.07 0.06 0.04 0.02 0.01 0.00 0.00 0.00 0.00 0.00 0.00 0.00 0.00 0.00 0.00 0.00 0.00 0.00 0.00 0.00 0.00 0.00 0.01 0.01 0.01 0.02 0.02 0.02 0.02 0.02 0.02 0.02
0.10 0.13 0.14 0.12 0.13 0.10 0.08 0.07 0.05 0.06 0.10 0.05 0.03 0.02 0.01 0.00 0.00 0.00 0.00 0.00 0.00 0.00 0.00 0.00 0.00 0.00 0.00 0.00 0.01 0.03 0.02 0.02 0.02 0.02 0.02 0.03 0.04 0.06
0.16 0.16 0.17 0.18 0.19 0.22 0.28 0.35 0.40 0.40 0.40 0.23 0.13 0.13 0.09 0.03 0.01 0.00 0.00 0.00 0.00 0.00 0.00 0.00 0.00 0.00 0.00 0.00 0.00 0.01 0.02 0.02 0.02 0.02 0.02 0.03 0.05 0.07
0.23 0.30 0.30 0.28 0.33 0.34 0.35 0.31 0.27 0.24 0.29 0.25 0.13 0.09 0.07 0.05 0.03 0.01 0.01 0.00 0.00 0.00 0.00 0.00 0.00 0.00 0.00 0.00 0.00 0.01 0.01 0.01 0.02 0.03 0.04 0.05 0.07 0.08
0.28 0.27 0.25 0.26 0.26 0.22 0.21 0.19 0.16 0.18 0.21 0.26 0.20 0.10 0.07 0.05 0.04 0.03 0.02 0.02 0.00 0.00 0.00 0.00 0.00 0.00 0.01 0.01 0.00 0.00 0.00 0.00 0.01 0.02 0.03 0.03 0.03 0.04
0.12 0.12 0.12 0.13 0.13 0.13 0.13 0.11 0.10 0.11 0.16 0.20 0.26 0.19 0.12 0.08 0.05 0.05 0.03 0.02 0.02 0.03 0.01 0.00 0.00 0.01 0.00 0.00 0.00 0.00 0.01 0.03 0.06 0.08 0.09 0.08 0.07 0.07
0.03 0.04 0.05 0.11 0.12 0.09 0.08 0.10 0.12 0.16 0.21 0.22 0.24 0.19 0.15 0.09 0.03 0.03 0.06 0.08 0.09 0.07 0.02 0.00 0.00 0.00 0.00 0.01 0.03 0.04 0.06 0.08 0.09 0.10 0.11 0.11 0.10 0.09
0.06 0.05 0.07 0.15 0.10 0.15 0.16 0.20 0.23 0.25 0.25 0.22 0.22 0.22 0.16 0.10 0.14 0.22 0.20 0.18 0.18 0.10 0.06 0.04 0.02 0.02 0.01 0.01 0.01 0.01 0.01 0.01 0.02 0.03 0.04 0.05 0.06 0.07
0.08 0.08 0.09 0.11 0.17 0.12 0.22 0.31 0.30 0.33 0.24 0.16 0.18 0.19 0.20 0.21 0.27 0.29 0.24 0.22 0.23 0.13 0.08 0.05 0.01 0.01 0.01 0.02 0.03 0.04 0.05 0.04 0.03 0.03 0.04 0.04 0.03 0.02
0.07 0.07 0.07 0.07 0.12 0.12 0.07 0.11 0.14 0.19 0.20 0.15 0.18 0.29 0.38 0.43 0.42 0.38 0.30 0.25 0.19 0.10 0.06 0.08 0.02 0.02 0.02 0.02 0.02 0.02 0.03 0.03 0.03 0.02 0.02 0.02 0.02 0.02
0.12 0.14 0.18 0.17 0.44 0.38 0.24 0.32 0.43 0.51 0.57 0.52 0.49 0.46 0.42 0.35 0.28 0.25 0.21 0.16 0.11 0.05 0.03 0.08 0.05 0.03 0.01 0.00 0.00 0.00 0.00 0.00 0.00 0.00 0.00 0.01 0.01 0.01
0.14 0.24 0.47 0.32 0.49 0.37 0.28 0.24 0.32 0.34 0.29 0.28 0.26 0.24 0.20 0.16 0.12 0.10 0.11 0.16 0.14 0.10 0.03 0.05 0.02 0.03 0.06 0.00 0.00 0.00 0.00 0.00 0.00 0.00 0.00 0.00 0.01 0.01
0.22 0.25 0.31 0.38 0.24 0.23 0.20 0.16 0.23 0.28 0.28 0.24 0.21 0.18 0.15 0.08 0.04 0.03 0.02 0.06 0.13 0.12 0.02 0.12 0.08 0.05 0.11 0.03 0.00 0.00 0.00 0.01 0.01 0.01 0.01 0.00 0.01 0.01
0.23 0.24 0.35 0.40 0.28 0.27 0.25 0.25 0.26 0.24 0.22 0.21 0.19 0.13 0.06 0.03 0.02 0.01 0.01 0.01 0.02 0.05 0.05 0.16 0.26 0.11 0.13 0.12 0.06 0.01 0.00 0.01 0.02 0.02 0.04 0.04 0.01 0.00
0.21 0.30 0.38 0.34 0.28 0.24 0.22 0.22 0.20 0.16 0.12 0.09 0.07 0.05 0.03 0.01 0.03 0.06 0.09 0.08 0.06 0.05 0.07 0.11 0.14 0.14 0.16 0.11 0.06 0.02 0.01 0.01 0.02 0.03 0.05 0.07 0.05 0.05
0.30 0.34 0.34 0.31 0.30 0.28 0.25 0.19 0.14 0.11 0.09 0.08 0.05 0.02 0.01 0.01 0.02 0.02 0.05 0.06 0.09 0.04 0.01 0.05 0.10 0.15 0.14 0.08 0.09 0.06 0.04 0.04 0.03 0.04 0.05 0.07 0.09 0.14
0.30 0.28 0.25 0.20 0.17 0.14 0.11 0.07 0.05 0.03 0.02 0.01 0.02 0.02 0.05 0.06 0.05 0.05 0.06 0.06 0.07 0.02 0.01 0.00 0.03 0.06 0.06 0.05 0.08 0.03 0.04 0.05 0.03 0.05 0.07 0.08 0.10 0.15
0.22 0.22 0.22 0.19 0.16 0.13 0.10 0.06 0.03 0.02 0.01 0.01 0.05 0.08 0.06 0.04 0.03 0.03 0.04 0.05 0.04 0.01 0.01 0.01 0.06 0.10 0.07 0.03 0.02 0.02 0.04 0.06 0.07 0.06 0.07 0.11 0.09 0.14
0.26 0.25 0.21 0.17 0.12 0.08 0.05 0.04 0.04 0.02 0.01 0.01 0.02 0.04 0.05 0.04 0.04 0.04 0.05 0.07 0.06 0.03 0.02 0.02 0.09 0.15 0.13 0.05 0.01 0.03 0.09 0.10 0.09 0.07 0.08 0.12 0.15 0.19
0.13 0.12 0.11 0.09 0.06 0.04 0.03 0.02 0.01 0.02 0.01 0.01 0.02 0.06 0.09 0.10 0.08 0.07 0.07 0.10 0.07 0.05 0.04 0.03 0.08 0.13 0.18 0.11 0.08 0.02 0.03 0.06 0.12 0.15 0.14 0.12 0.11 0.11
0.12 0.10 0.09 0.07 0.05 0.03 0.03 0.02 0.02 0.02 0.01 0.01 0.02 0.05 0.08 0.11 0.10 0.10 0.12 0.12 0.12 0.10 0.08 0.02 0.02 0.09 0.16 0.15 0.12 0.03 0.02 0.03 0.05 0.11 0.13 0.22 0.25 0.17
0.07 0.06 0.05 0.04 0.03 0.03 0.03 0.02 0.01 0.01 0.01 0.01 0.02 0.04 0.05 0.09 0.12 0.11 0.10 0.11 0.10 0.09 0.07 0.03 0.03 0.08 0.12 0.11 0.06 0.06 0.06 0.09 0.06 0.04 0.04 0.11 0.22 0.29
0.05 0.04 0.04 0.03 0.02 0.01 0.01 0.01 0.01 0.01 0.01 0.01 0.01 0.02 0.05 0.08 0.08 0.07 0.07 0.08 0.08 0.08 0.08 0.09 0.09 0.09 0.06 0.08 0.09 0.09 0.10 0.09 0.10 0.10 0.06 0.03 0.08 0.09

GFSNE_prec_precacc24_075.txt.gz
Total_Precipitation_Accumulation
0.12 0.14 0.13 0.11 0.12 0.10 0.08 0.09 0.06 0.02 0.01 0.00 0.00 0.00 0.00 0.00 0.00 0.00 0.00 0.00 0.00 0.00 0.00 0.00 0.00 0.00 0.00 0.00 0.01 0.01 0.01 0.02 0.02 0.02 0.02 0.02 0.02 0.02
0.10 0.12 0.13 0.11 0.12 0.10 0.09 0.09 0.08 0.08 0.11 0.05 0.03 0.02 0.01 0.00 0.00 0.00 0.00 0.00 0.00 0.00 0.00 0.00 0.00 0.00 0.00 0.00 0.01 0.03 0.02 0.02 0.02 0.02 0.02 0.03 0.04 0.06
0.15 0.15 0.16 0.16 0.18 0.22 0.29 0.36 0.41 0.41 0.40 0.23 0.13 0.13 0.09 0.03 0.01 0.00 0.00 0.01 0.00 0.01 0.02 0.02 0.01 0.00 0.00 0.00 0.00 0.01 0.02 0.02 0.02 0.02 0.02 0.03 0.05 0.06
0.19 0.29 0.29 0.28 0.33 0.34 0.35 0.31 0.27 0.24 0.29 0.25 0.13 0.09 0.08 0.07 0.06 0.03 0.01 0.01 0.01 0.01 0.02 0.02 0.01 0.00 0.00 0.00 0.00 0.01 0.01 0.01 0.02 0.03 0.04 0.05 0.07 0.08
0.27 0.27 0.25 0.26 0.26 0.22 0.21 0.19 0.16 0.18 0.22 0.26 0.20 0.11 0.09 0.08 0.08 0.06 0.05 0.04 0.02 0.01 0.01 0.01 0.01 0.02 0.02 0.03 0.03 0.02 0.00 0.00 0.01 0.02 0.03 0.03 0.03 0.04
0.12 0.11 0.12 0.13 0.13 0.13 0.13 0.12 0.11 0.13 0.17 0.20 0.26 0.20 0.13 0.10 0.12 0.13 0.09 0.07 0.08 0.05 0.04 0.05 0.06 0.05 0.04 0.04 0.04 0.02 0.02 0.03 0.06 0.08 0.09 0.08 0.07 0.07
0.03 0.04 0.05 0.11 0.12 0.09 0.09 0.10 0.12 0.17 0.23 0.25 0.27 0.21 0.17 0.16 0.15 0.14 0.16 0.17 0.19 0.20 0.16 0.10 0.07 0.05 0.05 0.06 0.08 0.06 0.06 0.08 0.08 0.10 0.10 0.10 0.10 0.09
0.06 0.05 0.07 0.15 0.10 0.15 0.16 0.20 0.24 0.28 0.28 0.25 0.25 0.28 0.26 0.27 0.27 0.31 0.32 0.33 0.35 0.30 0.29 0.26 0.18 0.15 0.12 0.13 0.11 0.03 0.01 0.01 0.02 0.03 0.04 0.05 0.05 0.07
0.08 0.08 0.09 0.11 0.17 0.12 0.22 0.31 0.31 0.35 0.30 0.27 0.30 0.32 0.31 0.32 0.35 0.44 0.44 0.45 0.47 0.40 0.33 0.29 0.22 0.18 0.13 0.09 0.05 0.05 0.05 0.04 0.03 0.03 0.03 0.03 0.02 0.02
0.07 0.07 0.07 0.07 0.12 0.12 0.07 0.11 0.15 0.21 0.25 0.25 0.32 0.46 0.55 0.59 0.56 0.53 0.49 0.46 0.41 0.31 0.25 0.22 0.12 0.11 0.06 0.04 0.03 0.03 0.04 0.03 0.03 0.02 0.02 0.02 0.02 0.02
0.12 0.14 0.18 0.17 0.45 0.40 0.25 0.34 0.49 0.58 0.71 0.66 0.60 0.59 0.57 0.48 0.38 0.32 0.32 0.28 0.24 0.16 0.11 0.13 0.07 0.05 0.02 0.01 0.00 0.00 0.00 0.00 0.00 0.00 0.00 0.01 0.01 0.01
0.15 0.25 0.49 0.33 0.53 0.42 0.33 0.26 0.37 0.44 0.35 0.36 0.36 0.34 0.30 0.26 0.25 0.21 0.19 0.18 0.16 0.15 0.07 0.08 0.03 0.03 0.06 0.00 0.00 0.00 0.00 0.00 0.00 0.00 0.00 0.00 0.00 0.00
0.24 0.28 0.36 0.48 0.30 0.31 0.29 0.20 0.34 0.40 0.38 0.31 0.28 0.27 0.24 0.19 0.13 0.10 0.09 0.11 0.16 0.14 0.03 0.12 0.08 0.05 0.11 0.03 0.00 0.00 0.00 0.01 0.01 0.01 0.01 0.00 0.00 0.01
0.29 0.33 0.47 0.54 0.40 0.43 0.44 0.44 0.43 0.38 0.32 0.31 0.30 0.25 0.18 0.13 0.08 0.05 0.03 0.02 0.02 0.06 0.05 0.16 0.26 0.11 0.13 0.12 0.06 0.01 0.00 0.01 0.02 0.02 0.04 0.04 0.01 0.00
0.48 0.66 0.75 0.66 0.56 0.53 0.49 0.44 0.33 0.26 0.22 0.19 0.17 0.15 0.10 0.06 0.04 0.02 0.02 0.02 0.05 0.05 0.07 0.11 0.14 0.14 0.16 0.11 0.06 0.02 0.01 0.01 0.02 0.03 0.05 0.07 0.05 0.02
0.76 0.85 0.85 0.77 0.62 0.51 0.43 0.32 0.24 0.20 0.19 0.18 0.15 0.12 0.09 0.07 0.04 0.03 0.04 0.03 0.04 0.02 0.01 0.05 0.10 0.15 0.14 0.08 0.09 0.06 0.04 0.04 0.03 0.04 0.05 0.07 0.08 0.08
0.68 0.63 0.56 0.45 0.34 0.30 0.27 0.24 0.21 0.18 0.16 0.14 0.12 0.08 0.05 0.03 0.04 0.04 0.06 0.04 0.05 0.01 0.01 0.00 0.03 0.06 0.06 0.05 0.08 0.03 0.04 0.05 0.03 0.06 0.08 0.08 0.08 0.09
0.41 0.39 0.38 0.35 0.33 0.30 0.26 0.22 0.17 0.13 0.10 0.06 0.04 0.02 0.01 0.01 0.02 0.01 0.02 0.03 0.03 0.01 0.01 0.01 0.06 0.10 0.07 0.03 0.02 0.02 0.04 0.06 0.07 0.06 0.07 0.11 0.08 0.09
0.38 0.37 0.33 0.29 0.22 0.16 0.12 0.09 0.08 0.05 0.03 0.01 0.01 0.01 0.01 0.01 0.01 0.03 0.03 0.05 0.04 0.03 0.02 0.02 0.09 0.15 0.14 0.05 0.01 0.03 0.09 0.10 0.09 0.07 0.08 0.12 0.14 0.15
0.19 0.18 0.17 0.14 0.10 0.07 0.05 0.03 0.02 0.02 0.01 0.01 0.01 0.01 0.02 0.02 0.03 0.04 0.05 0.07 0.05 0.04 0.03 0.03 0.08 0.13 0.20 0.12 0.08 0.02 0.03 0.06 0.12 0.16 0.14 0.13 0.09 0.08
0.16 0.14 0.12 0.09 0.06 0.04 0.03 0.02 0.02 0.02 0.01 0.01 0.01 0.02 0.02 0.02 0.03 0.05 0.09 0.09 0.09 0.07 0.06 0.02 0.02 0.09 0.16 0.15 0.12 0.03 0.02 0.03 0.05 0.11 0.14 0.23 0.25 0.17
0.09 0.07 0.06 0.04 0.03 0.03 0.03 0.02 0.01 0.01 0.01 0.01 0.01 0.01 0.01 0.02 0.04 0.05 0.06 0.08 0.07 0.07 0.05 0.02 0.02 0.08 0.12 0.12 0.06 0.06 0.06 0.08 0.06 0.04 0.04 0.11 0.24 0.31
0.05 0.05 0.04 0.03 0.02 0.01 0.01 0.01 0.01 0.01 0.01 0.01 0.01 0.01 0.02 0.02 0.02 0.04 0.05 0.06 0.06 0.05 0.05 0.07 0.09 0.09 0.06 0.08 0.09 0.09 0.10 0.09 0.09 0.10 0.06 0.03 0.09 0.10